Regional Weather Roundup
Issued by NWS Charleston, WV

Home | Current Version | Previous Version | Graphics & Text | Print | Product List | Glossary On
Versions: 1 2 3 4 5 6 7 8 9 10 11 12 13 14 15 16 17 18 19 20 21 22 23 24 25 26 27 28 29 30 31 32 33 34 35 36 37 38 39 40 41 42 43 44 45 46 47 48 49 50
000
ASUS41 KRLX 290710
RWRRLX
West Virginia Regional Weather Roundup
National Weather Service Charleston WV
300 AM EDT SAT AUG 29 2015

Note: "fair" indicates few or no clouds below 12,000 feet with no
significant weather and/or obstructions to visibility.

WVZ003-290800-
Northern Panhandle of West Virginia

CITY           SKY/WX    TMP DP  RH WIND       PRES   REMARKS
WHEELING       CLEAR     59  56  89 CALM      30.17F
$$

WVZ009-290800-
Northwest West Virginia

CITY           SKY/WX    TMP DP  RH WIND       PRES   REMARKS
PARKERSBURG    MOCLDY    57  55  93 CALM      30.18F
$$

WVZ006-290800-
Western West Virginia

CITY           SKY/WX    TMP DP  RH WIND       PRES   REMARKS
HUNTINGTON     CLEAR     61  60  97 CALM      30.15S
$$

WVZ015-290800-
West Central West Virginia

CITY           SKY/WX    TMP DP  RH WIND       PRES   REMARKS
CHARLESTON     CLEAR     62  60  93 CALM      30.16S
$$

WVZ022-031-290800-
North Central West Virginia

CITY           SKY/WX    TMP DP  RH WIND       PRES   REMARKS
CLARKSBURG     CLEAR     57  55  93 CALM      30.18S
MORGANTOWN     CLEAR     61  53  75 CALM      30.19F
$$

WVZ025-035-042-045-290800-
Southern West Virginia

CITY           SKY/WX    TMP DP  RH WIND       PRES   REMARKS
BECKLEY        CLEAR     65  57  75 SE8       30.23F
LOGAN            N/A     66  61  82 CALM      30.18F
BLUEFIELD      CLEAR     68  56  65 SW7       30.26F
LEWISBURG      MOCLDY    60  58  94 NE3       30.25S FOG
$$

WVZ047-290800-
Northern Mountains of West Virginia

CITY           SKY/WX    TMP DP  RH WIND       PRES   REMARKS
ELKINS         PTCLDY    54  52  93 CALM      30.23F FOG
$$

WVZ052-290800-
Eastern Panhandle of West Virginia

CITY           SKY/WX    TMP DP  RH WIND       PRES   REMARKS
MARTINSBURG    PTCLDY    62  59  90 CALM      30.19S
PETERSBURG     PTCLDY    58  58  99 CALM      30.20S FOG
$$


USA.gov is the U.S. government's official web portal to all federal, state and local government web resources and services.